Fort Polk, LA

5:43 PM CST on January 22, 2017 (GMT -0600)
Polk Army Air Field

Weather History for KPOE - April, 2013

Change the Weather History Date:

Monday, April 15, 2013

  Actual Average Record
Temperature  
Mean Temperature 74 °F -  
Max Temperature 86 °F 74 °F 86 °F (2001)
Min Temperature 62 °F 54 °F 37 °F (2014)
Cooling Degree Days 9    
Growing Degree Days 24 (Base 50)    
Moisture  
Dew Point 64 °F    
Average Humidity 84    
Maximum Humidity 100    
Minimum Humidity 51    
Precipitation  
Precipitation 0.00 in - - ()
Sea Level Pressure  
Sea Level Pressure 29.83 in    
Wind  
Wind Speed 8 mph (South)    
Max Wind Speed 15 mph    
Max Gust Speed 20 mph    
Visibility 7 miles    
Events      
Averages and records for this station are not official NWS values.
T = Trace of Precipitation, MM = Missing Value Source: NWS Daily Summary

Daily Weather History Graph

Daily Weather History Graph

Search for Another Location

Airport or City:

Trip Planner

Search our weather history database for the weather conditions in past years. The results will help you decide how hot, cold, wet, or windy it might be!

Date:

Astronomy

Apr. 15, 2013 Rise Set
Actual Time 6:44 AM CDT 7:41 PM CDT
Civil Twilight 6:19 AM CDT 8:06 PM CDT
Nautical Twilight 5:50 AM CDT 8:35 PM CDT
Astronomical Twilight 5:20 AM CDT 9:05 PM CDT
Moon 10:22 AM CDT (4/15) No Moon Set
Length of Visible Light 13h 46m
Length of Day
12h 56m
Waxing Crescent, 25% of the Moon is Illuminated
Apr 15
Waxing Crescent
Apr 18
First Quarter
Apr 25
Full
May 2
Last Quarter
May 9
New

Hourly Weather History & Observations

Time (CDT) Temp. Heat Index Dew Point Humidity Pressure Visibility Wind Dir Wind Speed Gust Speed Precip Events Conditions
12:26 AM 64.4 °F - 62.6 °F 94% 29.78 in 10.0 mi South 8.1 mph - N/A   Mostly Cloudy
12:45 AM 64.4 °F - 62.6 °F 94% 29.78 in 10.0 mi South 6.9 mph - N/A   Scattered Clouds
12:55 AM 63.0 °F - 61.0 °F 93% 29.79 in 10.0 mi SSE 8.1 mph - N/A   Partly Cloudy
1:14 AM 64.4 °F - 62.6 °F 94% 29.78 in 10.0 mi South 8.1 mph - N/A   Mostly Cloudy
1:55 AM 64.0 °F - 62.1 °F 93% 29.78 in 9.0 mi South 9.2 mph - N/A   Overcast
2:45 AM 64.4 °F - 62.6 °F 94% 29.78 in 5.0 mi South 9.2 mph - N/A   Overcast
2:55 AM 64.0 °F - 63.0 °F 96% 29.78 in 3.0 mi South 8.1 mph - N/A   Overcast
3:07 AM 64.4 °F - 62.6 °F 94% 29.78 in 1.8 mi South 6.9 mph - N/A   Overcast
3:20 AM 64.4 °F - 62.6 °F 94% 29.78 in 2.0 mi South 5.8 mph - N/A   Overcast
3:40 AM 64.4 °F - 62.6 °F 94% 29.78 in 1.8 mi South 8.1 mph - N/A   Overcast
3:55 AM 63.0 °F - 62.1 °F 97% 29.79 in 1.5 mi South 5.8 mph - N/A   Overcast
4:11 AM 62.6 °F - 62.6 °F 100% 29.78 in 1.2 mi South 8.1 mph - N/A   Overcast
4:19 AM 62.6 °F - 62.6 °F 100% 29.78 in 1.0 mi South 8.1 mph - N/A   Mist
4:24 AM 64.4 °F - 62.6 °F 94% 29.79 in 1.5 mi South 9.2 mph - N/A   Overcast
4:39 AM 64.4 °F - 62.6 °F 94% 29.79 in 2.5 mi South 9.2 mph - N/A   Overcast
4:46 AM 64.4 °F - 62.6 °F 94% 29.79 in 4.0 mi South 4.6 mph - N/A   Overcast
4:55 AM 64.0 °F - 63.0 °F 96% 29.80 in 4.0 mi South 5.8 mph - N/A   Overcast
5:19 AM 64.4 °F - 62.6 °F 94% 29.79 in 5.0 mi South 9.2 mph - N/A   Overcast
5:55 AM 64.0 °F - 62.1 °F 93% 29.81 in 7.0 mi South 8.1 mph - N/A   Overcast
6:55 AM 64.9 °F - 63.0 °F 93% 29.83 in 4.0 mi South 6.9 mph - N/A   Overcast
7:55 AM 64.9 °F - 63.0 °F 93% 29.86 in 5.0 mi South 5.8 mph - N/A   Overcast
8:02 AM 66.2 °F - 62.6 °F 88% 29.85 in 5.0 mi South 5.8 mph - N/A   Overcast
8:48 AM 66.2 °F - 62.6 °F 88% 29.86 in 7.0 mi South 6.9 mph - N/A   Mostly Cloudy
8:55 AM 68.0 °F - 63.0 °F 84% 29.87 in 8.0 mi South 6.9 mph - N/A   Mostly Cloudy
9:08 AM 68.0 °F - 62.6 °F 83% 29.86 in 9.0 mi SW 4.6 mph - N/A   Scattered Clouds
9:55 AM 72.0 °F - 62.1 °F 71% 29.88 in 10.0 mi South 6.9 mph - N/A   Clear
10:55 AM 77.0 °F - 64.0 °F 64% 29.88 in 10.0 mi South 8.1 mph - N/A   Clear
11:55 AM 80.1 °F 81.7 °F 64.0 °F 58% 29.88 in 10.0 mi South 9.2 mph - N/A   Clear
12:55 PM 82.9 °F 84.4 °F 64.0 °F 53% 29.86 in 10.0 mi SW 8.1 mph 19.6 mph N/A   Clear
1:55 PM 84.0 °F 85.4 °F 64.0 °F 51% 29.85 in 10.0 mi South 10.4 mph 17.3 mph N/A   Clear
2:55 PM 84.9 °F 86.6 °F 64.9 °F 51% 29.83 in 10.0 mi South 10.4 mph - N/A   Partly Cloudy
3:55 PM 86.0 °F 88.8 °F 66.9 °F 53% 29.81 in 10.0 mi South 11.5 mph 19.6 mph N/A   Partly Cloudy
4:55 PM 84.0 °F 85.8 °F 64.9 °F 53% 29.81 in 10.0 mi SSE 15.0 mph - N/A   Mostly Cloudy
5:55 PM 84.0 °F 86.3 °F 66.0 °F 55% 29.82 in 10.0 mi South 12.7 mph - N/A   Scattered Clouds
6:55 PM 81.0 °F 83.3 °F 66.9 °F 62% 29.82 in 10.0 mi SSE 10.4 mph - N/A   Clear
7:55 PM 77.0 °F - 69.1 °F 76% 29.85 in 10.0 mi SSE 12.7 mph - N/A   Clear
8:55 PM 75.0 °F - 70.0 °F 84% 29.87 in 10.0 mi SSE 9.2 mph - N/A   Mostly Cloudy
9:55 PM 73.0 °F - 70.0 °F 90% 29.89 in 10.0 mi SSE 6.9 mph - N/A   Mostly Cloudy
10:55 PM 73.0 °F - 70.0 °F 90% 29.91 in 10.0 mi SSE 8.1 mph - N/A   Overcast
11:23 PM 73.4 °F - 69.8 °F 88% 29.90 in 10.0 mi SSE 6.9 mph - N/A   Overcast
11:34 PM 73.4 °F - 69.8 °F 88% 29.90 in 10.0 mi SSE 5.8 mph - N/A   Overcast
11:55 PM 73.0 °F - 70.0 °F 90% 29.91 in 10.0 mi SSE 5.8 mph - N/A   Overcast